GLOBALSTAR M095

Last updated on Sat Sep 05 2026 00:03:16 GMT+0000 (Coordinated Universal Time)

1 39077U 13005F 26247.41267227 -.00000112 00000+0 -44885-4 0 9995 2 39077 52.0086 40.0601 0001181 101.7692 258.3307 12.62264508625879
UTC large
Height (km)
Speed (km/s)
/
Latitude / Longitude
Inclination (degrees)
Orbital Period (minutes)
Azimuth
Elevation
Range (km)
Doppler Factor

Next 0 passes for location: London (51.5072 / 0.1276)

No passes found over London.
GLOBALSTAR M095